星链-32113 (STARLINK-32113)

导读

STARLINK-32113是美国SpaceX公司星链星座的一颗第二代卫星,于北京时间2024年7月28日,由猎鹰9号火箭从加州范登堡发射场发射升空,属于Starlink Group 9-4任务批次。它是为填补此前发射失败损失的直连手机卫星而部署,进入初始轨道后经爬升测试,将为全球用户提供低延迟卫星互联网服务,此次发射也让SpaceX累计发射星链总数突破6800颗。

Basic Information
目录编号:
60282
目录名称:
STARLINK-32113
国际标识:
2024-132E
轨道中心:
EARTH
卫星名称:
星链-32113 (STARLINK-32113)
卫星全名:
星链-32113 (STARLINK-32113)
卫星状态:
在轨 (已飞行768 天)
发射日期:
2024-07-28 UTC
国别 :
美国 (US)
星等 :
--
Orbit Information
数据来源 国际轨道数据
星历时间: 2026-09-04T12:48:55+0800
6小时前
查看轨道信息
半长轴: 6840.883km
偏心率: 0.0001111
轨道倾角: 53.160°
近地点辐角 87.471°
升交点赤经 301.680°
平近点角 272.642°
近地点: 461.985km
远地点: 463.507km
周期: 93.849分钟
每日圈数: 15.343858
Detailed Information
卫星平台:
Starlink v2.0 mini
运营商:
太空探索技术公司
运营商所在国:
美国
制造商(研发单位):
太空探索技术公司
制造商所在国:
美国
使用方式:
暂无
Satellite Introduction
星链(Starlink)计划是由太空探索技术公司(SpaceX)提出的一个巨型低轨卫星互联网星座项目,计划在2019年至2024年间在太空搭建由约1.2万颗卫星组成的“星链”网络,其中1584颗将部署在地球上空550千米处的近地轨道,并从2020年开始工作。该卫星仍在工作。
2D Orbit Map
3D Orbit Map
Orbit Altitude Analysis Chart
Orbit Inclination Analysis Chart
Orbit Comprehensive Analysis Chart
View Comprehensive Chart
Conjunction Data List
Event ID Objects TCA Miss Dist (km) Collision Risk Probability Collision Risk Index (CRI) Action
CDM_260904-212005-360006-028222
2026-09-04T
21:20:04+0000
2.895 km
极远距离
1.228835E-6 低风险 0.37
CDM_260906-093505-249706-028221
2026-09-06T
09:35:58+0000
2.907 km
极远距离
4.791947E-7 极低风险 0.29